KINEIS-5A

Last updated on Thu Sep 24 2026 00:03:12 GMT+0000 (Coordinated Universal Time)

1 62084U 24219D 26266.62570844 -.00002255 00000+0 -34978-3 0 9995 2 62084 97.9057 63.1029 0004382 10.2123 349.9173 14.72239837 98252
UTC large
Height (km)
Speed (km/s)
/
Latitude / Longitude
Inclination (degrees)
Orbital Period (minutes)
Azimuth
Elevation
Range (km)
Doppler Factor

Next 0 passes for location: London (51.5072 / 0.1276)

No passes found over London.
KINEIS-5A